Flag for Turkey Weather past 2 weeks in Istanbul, Turkey

Now
77 °F

Passing clouds.


Feels Like: 79 °F
Forecast: 75 / 85 °F
Wind: 7 mph from East

Location: Istanbul Ataturk Airport

Current Time: Jul 31, 2014 at 8:39:47 AM

Latest Report: Jul 31, 2014 at 7:50 AM


Visibility: N/A

Pressure: 29.83 "Hg

Humidity: 79%

Dew point: 70 °F

Location of IstanbulLocation

Historic Weather in Istanbul — Graph

°F

Istanbul temperature yesterday

Maximum temperature yesterday: 90 °F (at 3:20 PM)
Minimum temperature yesterday: 77 °F (at 2:20 AM)
Average temperature yesterday: 82 °F

Past Weeks' High & Low Weather Summary

 TemperatureHumidityPressure
High91 °F (Jul 28, 3:50 PM)89% (Jul 19, 11:50 AM)29.92 "Hg (Jul 19, 11:50 AM)
Low70 °F (Jul 18, 5:20 AM)33% (Jul 30, 3:20 PM)29.65 "Hg (Jul 23, 4:50 PM)
Average79 °F67%29.83 "Hg
* Reported Jul 16 7:20 AM — Jul 31 7:20 AM, Istanbul, Weather by CustomWeather, © 2014

Note: Actual official high and low records may vary slightly from our data, if they occured in-between our weather recording intervals... More about our weather records

Advertising

Istanbul weather history for previous 24 hours

 ConditionsComfort  
Time TempWeatherWind HumidityBarometerVisibility
7:20 AM
Jul 31
77 °FPassing clouds.7 mph74%29.80 "HgN/A
6:50 AM77 °FPassing clouds.7 mph79%29.80 "HgN/A
6:20 AM75 °FPassing clouds.6 mph78%29.80 "HgN/A
5:50 AM75 °FPassing clouds.5 mph83%29.80 "HgN/A
5:20 AM75 °FPassing clouds.5 mph83%29.80 "HgN/A
4:50 AM75 °FPassing clouds.3 mph83%29.80 "HgN/A
4:20 AM77 °FPassing clouds.5 mph79%29.83 "HgN/A
3:50 AM77 °FPassing clouds.3 mph79%29.83 "HgN/A
3:20 AM77 °FPassing clouds.5 mph74%29.83 "HgN/A
2:50 AM77 °FClear.6 mph74%29.83 "Hg10 mi
2:20 AM77 °FPassing clouds.7 mph79%29.83 "HgN/A
1:50 AM77 °FPassing clouds.7 mph74%29.83 "HgN/A
1:20 AM79 °FPassing clouds.8 mph70%29.83 "HgN/A
12:50 AM79 °FPassing clouds.9 mph70%29.83 "HgN/A
12:20 AM79 °FClear.10 mph74%29.83 "Hg10 mi
11:50 PM
Jul 30
79 °FPassing clouds.8 mph74%29.83 "HgN/A
11:20 PM79 °FPassing clouds.9 mph70%29.83 "HgN/A
10:50 PM79 °FPassing clouds.10 mph74%29.86 "HgN/A
10:20 PM81 °FClear.10 mph70%29.86 "Hg10 mi
9:50 PM81 °FPassing clouds.12 mph66%29.86 "HgN/A
9:20 PM81 °FPassing clouds.14 mph66%29.86 "HgN/A
8:50 PM81 °FPassing clouds.10 mph66%29.83 "HgN/A
8:20 PM82 °FPassing clouds.14 mph62%29.83 "HgN/A
7:50 PM84 °FPassing clouds.14 mph58%29.83 "HgN/A
7:20 PM84 °FPassing clouds.14 mph55%29.83 "HgN/A
6:50 PM84 °FPassing clouds.15 mph55%29.83 "HgN/A
6:20 PM86 °FPassing clouds.14 mph52%29.86 "HgN/A
5:50 PM86 °FPassing clouds.15 mph49%29.86 "HgN/A
5:20 PM86 °FPassing clouds.14 mph52%29.86 "HgN/A
4:50 PM88 °FPassing clouds.14 mph46%29.86 "HgN/A
4:20 PM88 °FPassing clouds.15 mph46%29.86 "HgN/A
3:50 PM90 °FPassing clouds.13 mph41%29.86 "HgN/A
3:20 PM90 °FPassing clouds.12 mph33%29.86 "HgN/A
2:50 PM88 °FPassing clouds.8 mph35%29.86 "HgN/A
2:20 PM86 °FPassing clouds.8 mph59%29.86 "HgN/A
1:50 PM84 °FScattered clouds.8 mph66%29.86 "HgN/A
1:20 PM84 °FScattered clouds.7 mph62%29.86 "HgN/A
12:50 PM84 °FScattered clouds.7 mph62%29.86 "HgN/A
12:20 PM82 °FScattered clouds.9 mph66%29.86 "HgN/A
11:50 AM82 °FScattered clouds.8 mph66%29.86 "HgN/A
11:20 AM84 °FScattered clouds.7 mph58%29.86 "HgN/A
10:50 AM82 °FScattered clouds.9 mph62%29.86 "HgN/A
10:20 AM82 °FScattered clouds.8 mph66%29.86 "HgN/A
9:50 AM82 °FScattered clouds.8 mph62%29.86 "HgN/A
9:20 AM82 °FScattered clouds.7 mph62%29.86 "HgN/A
8:50 AM82 °FScattered clouds.8 mph66%29.86 "HgN/A
8:20 AM81 °FScattered clouds.8 mph70%29.86 "HgN/A
Weather by CustomWeather, © 2014

See weather overviewHow to use our weather pages